Regional Weather Roundup
Issued by NWS

Home | Current Version | Previous Version | Text Only | Print | Product List | Glossary Off
Versions: 1 2 3 4 5 6 7 8 9 10 11 12 13 14 15 16 17 18 19 20 21 22 23 24 25 26 27 28 29 30 31 32 33 34 35 36 37 38 39 40 41 42 43 44 45 46 47 48 49 50

000
ASUS43 KBIS 290420
RWRND

NORTH DAKOTA REGIONAL WEATHER ROUNDUP
NATIONAL WEATHER SERVICE BISMARCK ND
1100 PM CDT SAT MAR 28 2015

NOTE: "FAIR" INDICATES FEW OR NO CLOUDS BELOW 12,000 FEET WITH NO
SIGNIFICANT WEATHER AND/OR OBSTRUCTIONS TO VISIBILITY.


NDZ001>003-009>011-017-290500-
NORTHWEST NORTH DAKOTA

CITY           SKY/WX    TMP DP  RH WIND       PRES   REMARKS
WILLISTON      CLOUDY    48  41  76 W23G35    29.60F
MINOT          CLOUDY    52  47  83 W15       29.51R
MINOT AFB      CLOUDY    49  49 100 W14       29.50R
$$

NDZ018>021-031>035-040>046-290500-
SOUTHWEST NORTH DAKOTA

CITY           SKY/WX    TMP DP  RH WIND       PRES   REMARKS
BISMARCK       LGT RAIN  54  50  86 W22G30    29.63R
DICKINSON      PTCLDY    44  36  73 W12       29.68R
GARRISON         N/A     51  47  86 W24G35    29.58R
HETTINGER ARPT PTCLDY    45  37  73 W13       29.76R
$$

NDZ004>008-012>016-024-026-027-054-290500-
NORTHEAST NORTH DAKOTA

CITY           SKY/WX    TMP DP  RH WIND       PRES   REMARKS
GRAND FORKS    LGT RAIN  43  34  70 S25G35    29.61R
GRND FRKS AFB  CLOUDY    43  34  70 S17       29.57R
DEVILS LAKE    CLOUDY    46  39  76 SW20G25   29.47S
$$

NDZ022-023-025-028>030-036>039-047>053-290500-
SOUTHEAST NORTH DAKOTA

CITY           SKY/WX    TMP DP  RH WIND       PRES   REMARKS
FARGO          LGT RAIN  45  29  53 S25G39    29.61F
JAMESTOWN      CLOUDY    47  38  71 S14       29.60F
$$



USA.gov is the U.S. government's official web portal to all federal, state and local government web resources and services.